This demonstration page uses our WeatherBlox Daily Observations layout. Learn more.

Left ArrowRight Arrow

39.01783, -85.05884

Hourly Observations for June 9, 2015

Temp ( °F °C ) Dew Point ( °F °C ) Humidity (%) Winds ( mph kmh ) Pressure ( in mb ) Visibility ( mi km ) Precip ( " mm )
12:11 am 00:11 Cloudy with Light Rain 61 16 57 14 88 88 NNW 9 15 29.91 1013 5 8 0.03 0.76
12:52 am 00:52 Cloudy with Light Rain 60 15.6 58 14.4 93 93 N N/A 29.85 1011 5 8 0.12 3.05
1:52 am 01:52 Cloudy 60 15.6 58 14.4 93 93 SSW 9 15 29.82 1010 9 14 0.02 0.51
2:52 am 02:52 Mostly Clear 59 15 57 13.9 93 93 SSW 5 7 29.80 1009 9 14 N/A
3:52 am 03:52 Clear with Mist and Fog 59 15 57 13.9 93 93 N N/A 29.79 1009 6 10 N/A
4:15 am 04:15 Mostly Cloudy with Mist and Fog 59 15 57 14 94 94 N N/A 29.83 1010 6 10 N/A
4:40 am 04:40 Mostly Clear with Mist and Fog 57 14 57 14 100 100 N N/A 29.83 1010 4 6 N/A
4:52 am 04:52 Clear with Mist and Fog 58 14.4 57 13.9 97 97 SSW 3 6 29.80 1009 4 6 N/A
5:52 am 05:52 Clear with Mist and Fog 59 15 57 13.9 93 93 SW 5 7 29.81 1010 4 6 N/A
6:26 am 06:26 Sunny with Mist and Fog 59 15 57 14 94 94 SW 6 9 29.83 1010 3 5 N/A
6:52 am 06:52 Partly Cloudy with Mist and Fog 60 15.6 59 15 96 96 SW 5 7 29.83 1010 2 3 N/A
6:55 am 06:55 Partly Cloudy with Mist and Fog 61 16 59 15 94 94 SW 5 7 29.85 1011 2 2 N/A
6:57 am 06:57 Partly Cloudy with Mist and Fog 61 16 59 15 94 94 SSW 3 6 29.85 1011 2 2 N/A
6:59 am 06:59 Mostly Cloudy with Mist and Fog 61 16 59 15 94 94 SW 3 6 29.85 1011 1 2 N/A
7:07 am 07:07 Mostly Cloudy with Mist and Fog 61 16 59 15 94 94 SSW 3 6 29.85 1011 1 1 N/A
7:09 am 07:09 Mostly Cloudy with Mist and Fog 61 16 59 15 94 94 N N/A 29.85 1011 1 1 N/A
7:14 am 07:14 Mostly Cloudy with Mist and Fog 61 16 61 16 100 100 N N/A 29.85 1011 1 1 N/A
7:21 am 07:21 Cloudy with Mist and Fog 61 16 61 16 100 100 N N/A 29.85 1011 0 0 N/A
7:52 am 07:52 Cloudy with Mist and Fog 63 17.2 62 16.7 97 97 WSW 5 7 29.84 1011 0 0 N/A
8:46 am 08:46 Cloudy with Mist and Fog 64 18 63 17 94 94 W 7 11 29.85 1011 1 2 N/A
8:52 am 08:52 Cloudy with Mist and Fog 65 18.3 63 17.2 93 93 WSW 6 9 29.86 1011 2 2 N/A
9:19 am 09:19 Mostly Cloudy with Mist and Fog 66 19 64 18 94 94 W 6 9 29.85 1011 3 5 N/A
9:52 am 09:52 Partly Cloudy 68 20 64 17.8 87 87 WSW 5 7 29.86 1011 7 11 N/A
10:52 am 10:52 Mostly Sunny 73 22.8 64 17.8 74 74 WNW 3 6 29.86 1011 7 11 N/A
11:52 am 11:52 Mostly Cloudy 76 24.4 63 17.2 64 64 WNW 5 7 29.87 1011 10 16 N/A
12:52 pm 12:52 Partly Cloudy 79 26.1 60 15.6 52 52 SW 7 11 29.85 1011 10 16 N/A
1:52 pm 13:52 Partly Cloudy 81 27.2 60 15.6 49 49 W 12 19 29.85 1011 10 16 N/A
2:52 pm 14:52 Mostly Cloudy 82 27.8 58 14.4 44 44 WNW 8 13 29.83 1010 10 16 N/A
3:52 pm 15:52 Cloudy 82 27.8 58 14.4 44 44 W 8 13 29.83 1010 9 14 N/A
4:52 pm 16:52 Mostly Cloudy 82 27.8 57 13.9 42 42 WNW 9 15 29.83 1010 7 11 N/A
5:52 pm 17:52 Cloudy 82 27.8 57 13.9 42 42 NNW 10 17 29.83 1010 7 11 N/A
6:52 pm 18:52 Cloudy 80 26.7 59 15 49 49 NNW 9 15 29.82 1010 7 11 N/A
7:52 pm 19:52 Cloudy 78 25.6 60 15.6 54 54 N 5 7 29.82 1010 7 11 N/A
8:52 pm 20:52 Cloudy 75 23.9 60 15.6 60 60 N 6 9 29.82 1010 7 11 N/A
9:52 pm 21:52 Mostly Clear 69 20.6 60 15.6 73 73 N N/A 29.85 1011 8 13 N/A
10:52 pm 22:52 Clear 68 20 60 15.6 76 76 N N/A 29.87 1011 7 11 N/A
11:52 pm 23:52 Clear 65 18.3 59 15 81 81 N N/A 29.87 1011 7 11 N/A

Powered by AerisWeather